{"data":{"norad_id":60909,"intl_designator":"2024-154G","name":"STARLINK-11265 [DTC]","alt_names":[],"object_type":"PAYLOAD","status":"ACTIVE","operator":null,"country":"US","launch_date":"2024-08-31","launch_site_code":"AFETR","launch_vehicle":null,"mission":null,"orbit_class":"UNKNOWN","rcs_meters":null,"size_class":null,"mass_kg":null,"dimensions":null,"purposes":["comms"],"wikipedia_slug":null,"has_3d_model":false,"image_url":null,"decayed_at":null,"tle_current":{"epoch":"2026-09-20T23:46:14.760768Z","epoch_age_seconds":146058,"freshness":"FRESH","line1":"1 60909U 24154G   26263.99044862  .00001975  00000+0  21143-4 0  9997","line2":"2 60909  53.1591 248.8628 0000952  86.8484 273.2643 15.69725981119182","mean_motion":15.69725981,"eccentricity":9.52e-5,"inclination_deg":53.1591,"raan_deg":248.8628,"arg_perigee_deg":86.8484,"mean_anomaly_deg":273.2643,"bstar":2.1143e-5,"rev_number":11918,"period_min":91.735756267641,"perigee_km":359.03957902753,"apogee_km":360.3224595784,"semimajor_km":6737.818019303,"source":"CELESTRAK","updated_at":"2026-09-22T09:00:49.283746Z"}}}